Satellite: NOAA-12
Catalog number: 21263
Epoch time: 07318.79018371
Element set: 0427
Inclination: 098.7618 deg
RA of node: 315.8451 deg
Eccentricity: 0.0012861
Arg of perigee: 034.9911 deg
Mean anomaly: 325.2080 deg
Mean motion: 14.25502334 rev/day
Decay rate: 3.9e-07 rev/day^2
Epoch rev: 85770
Checksum: 295
Satellite: MET-3/5
Catalog number: 21655
Epoch time: 07319.04786109
Element set: 0386
Inclination: 082.5521 deg
RA of node: 256.3444 deg
Eccentricity: 0.0012284
Arg of perigee: 186.8858 deg
Mean anomaly: 173.2094 deg
Mean motion: 13.17013182 rev/day
Decay rate: 5.1e-07 rev/day^2
Epoch rev: 78126
Checksum: 305
Satellite: MET-2/21
Catalog number: 22782
Epoch time: 07318.92881474
Element set: 0987
Inclination: 082.5453 deg
RA of node: 282.3229 deg
Eccentricity: 0.0022522
Arg of perigee: 169.6088 deg
Mean anomaly: 190.5547 deg
Mean motion: 13.83619993 rev/day
Decay rate: -4.9e-07 rev/day^2
Epoch rev: 71736
Checksum: 350
Satellite: OKEAN-4
Catalog number: 23317
Epoch time: 07318.75923489
Element set: 0425
Inclination: 082.5360 deg
RA of node: 156.0737 deg
Eccentricity: 0.0023894
Arg of perigee: 115.2637 deg
Mean anomaly: 245.1001 deg
Mean motion: 14.82549335 rev/day
Decay rate: 1.28e-06 rev/day^2
Epoch rev: 70636
Checksum: 301
Satellite: NOAA-14
Catalog number: 23455
Epoch time: 07318.75825977
Element set: 0898
Inclination: 098.9742 deg
RA of node: 025.6203 deg
Eccentricity: 0.0009875
Arg of perigee: 038.9453 deg
Mean anomaly: 321.2435 deg
Mean motion: 14.13728234 rev/day
Decay rate: -6.2e-07 rev/day^2
Epoch rev: 66391
Checksum: 336
Satellite: SICH-1
Catalog number: 23657
Epoch time: 07318.76844996
Element set: 0226
Inclination: 082.5253 deg
RA of node: 297.0041 deg
Eccentricity: 0.0025771
Arg of perigee: 107.1120 deg
Mean anomaly: 253.2913 deg
Mean motion: 14.81524560 rev/day
Decay rate: -1.3e-07 rev/day^2
Epoch rev: 65832
Checksum: 289
Satellite: NOAA-15
Catalog number: 25338
Epoch time: 07319.03015340
Element set: 0241
Inclination: 098.5418 deg
RA of node: 311.5429 deg
Eccentricity: 0.0009913
Arg of perigee: 313.4006 deg
Mean anomaly: 046.6384 deg
Mean motion: 14.24672004 rev/day
Decay rate: 3.1e-07 rev/day^2
Epoch rev: 49416
Checksum: 269
Satellite: RESURS
Catalog number: 25394
Epoch time: 07319.05167921
Element set: 0801
Inclination: 098.4189 deg
RA of node: 007.4585 deg
Eccentricity: 0.0002239
Arg of perigee: 092.2870 deg
Mean anomaly: 267.8567 deg
Mean motion: 14.24148459 rev/day
Decay rate: -1.9e-07 rev/day^2
Epoch rev: 48582
Checksum: 326
Satellite: FENGYUN1
Catalog number: 25730
Epoch time: 07319.04592787
Element set: 0301
Inclination: 098.7059 deg
RA of node: 297.3123 deg
Eccentricity: 0.0020852
Arg of perigee: 054.9065 deg
Mean anomaly: 305.4050 deg
Mean motion: 14.07640600 rev/day
Decay rate: 1.12e-06 rev/day^2
Epoch rev: 43869
Checksum: 283
Satellite: OKEAN-0
Catalog number: 25860
Epoch time: 07318.51292524
Element set: 0212
Inclination: 097.7377 deg
RA of node: 313.8000 deg
Eccentricity: 0.0000490
Arg of perigee: 077.0395 deg
Mean anomaly: 283.0865 deg
Mean motion: 14.73484410 rev/day
Decay rate: 4.3e-07 rev/day^2
Epoch rev: 44763
Checksum: 284
Satellite: NOAA-16
Catalog number: 26536
Epoch time: 07318.79183860
Element set: 0683
Inclination: 099.1368 deg
RA of node: 298.4942 deg
Eccentricity: 0.0011307
Arg of perigee: 109.2166 deg
Mean anomaly: 251.0216 deg
Mean motion: 14.12458522 rev/day
Decay rate: 2.00e-06 rev/day^2
Epoch rev: 36836
Checksum: 307
Satellite: NOAA-17
Catalog number: 27453
Epoch time: 07318.75444410
Element set: 0679
Inclination: 098.5648 deg
RA of node: 024.3246 deg
Eccentricity: 0.0011854
Arg of perigee: 020.8534 deg
Mean anomaly: 339.3124 deg
Mean motion: 14.23923757 rev/day
Decay rate: -7.4e-07 rev/day^2
Epoch rev: 28014
Checksum: 307
Satellite: NOAA-18
Catalog number: 28654
Epoch time: 07318.78805805
Element set: 0198
Inclination: 098.8451 deg
RA of node: 257.6353 deg
Eccentricity: 0.0013835
Arg of perigee: 199.8074 deg
Mean anomaly: 160.2553 deg
Mean motion: 14.11109883 rev/day
Decay rate: -1.43e-06 rev/day^2
Epoch rev: 12809
Checksum: 333
/EX
SB KEPS @ AMSAT $ORB07319.M
Orbital Elements 07319.MISC
HR AMSAT ORBITAL ELEMENTS FOR MANNED AND MISCELLANEOUS SATELLITES
FROM WA5QGD FORT WORTH,TX November 15, 2007
Send Subscribe/unsubscribe to KEPS at
http://www.amsat.org/mailman/listinfo/keps
BID: ORB07319.M
TO ALL RADIO AMATEURS BT
Satellite: HUBBLE
Catalog number: 20580
Epoch time: 07319.01678268
Element set: 0012
Inclination: 028.4697 deg
RA of node: 286.5391 deg
Eccentricity: 0.0003697
Arg of perigee: 253.2390 deg
Mean anomaly: 106.7805 deg
Mean motion: 15.00302054 rev/day
Decay rate: 3.39e-06 rev/day^2
Epoch rev: 76263
Checksum: 290
Satellite: UARS
Catalog number: 21701
Epoch time: 07318.66371597
Element set: 0227
Inclination: 056.9748 deg
RA of node: 020.2945 deg
Eccentricity: 0.0094882
Arg of perigee: 121.4926 deg
Mean anomaly: 239.5446 deg
Mean motion: 15.49607991 rev/day
Decay rate: 3.797e-05 rev/day^2
Epoch rev: 88906
Checksum: 351
Satellite: PO-34
Catalog number: 25520
Epoch time: 07319.68143424
Element set: 866
Inclination: 028.4595 deg
RA of node: 174.7597 deg
Eccentricity: 0.0005529
Arg of perigee: 109.8330 deg
Mean anomaly: 250.2837 deg
Mean motion: 15.17082085 rev/day
Decay rate: 4.86e-06 rev/day^2
Epoch rev: 50055
Checksum: 318
Satellite: ISS
Catalog number: 25544
Epoch time: 07319.73243174
Element set: 353
Inclination: 051.6416 deg
RA of node: 042.5430 deg
Eccentricity: 0.0001763
Arg of perigee: 169.8667 deg
Mean anomaly: 274.9329 deg
Mean motion: 15.76229342 rev/day
Decay rate: 2.1054e-04 rev/day^2
Epoch rev: 51468
Checksum: 303
Satellite: OO-38
Catalog number: 26063
Epoch time: 07319.52506668
Element set: 60
Inclination: 100.2210 deg
RA of node: 350.0810 deg
Eccentricity: 0.0037315
Arg of perigee: 094.1553 deg
Mean anomaly: 266.3897 deg
Mean motion: 14.35819965 rev/day
Decay rate: -8.0e-08 rev/day^2
Epoch rev: 40876
Checksum: 299
Satellite: UWE-1
Catalog number: 28892
Epoch time: 07318.69132733
Element set: 898
Inclination: 098.1126 deg
RA of node: 212.1951 deg
Eccentricity: 0.0017595
Arg of perigee: 005.8871 deg
Mean anomaly: 354.2536 deg
Mean motion: 14.59560658 rev/day
Decay rate: 1.76e-06 rev/day^2
Epoch rev: 10916
Checksum: 330
Satellite: CO-58
Catalog number: 28895
Epoch time: 07318.73395913
Element set: 0874
Inclination: 098.1157 deg
RA of node: 212.5073 deg
Eccentricity: 0.0018217
Arg of perigee: 005.7266 deg
Mean anomaly: 354.4161 deg
Mean motion: 14.59603005 rev/day
Decay rate: 2.4e-07 rev/day^2
Epoch rev: 10905
Checksum: 308
Satellite: NCUBE2
Catalog number: 28897
Epoch time: 07319.61439652
Element set: 402
Inclination: 098.1149 deg
RA of node: 213.3140 deg
Eccentricity: 0.0017675
Arg of perigee: 004.4294 deg
Mean anomaly: 355.7064 deg
Mean motion: 14.59769516 rev/day
Decay rate: 1.36e-06 rev/day^2
Epoch rev: 10146
Checksum: 307
Satellite: FCAL
Catalog number: 29667
Epoch time: 07319.57496833
Element set: 500
Inclination: 051.6329 deg
RA of node: 017.0496 deg
Eccentricity: 0.0009155
Arg of perigee: 221.5657 deg
Mean anomaly: 138.4660 deg
Mean motion: 15.94682204 rev/day
Decay rate: 3.0199e-04 rev/day^2
Epoch rev: 5210
Checksum: 307
Satellite: FALCON
Catalog number: 30776
Epoch time: 07318.53741011
Element set: 0194
Inclination: 035.4341 deg
RA of node: 021.1627 deg
Eccentricity: 0.0002019
Arg of perigee: 322.7322 deg
Mean anomaly: 037.3254 deg
Mean motion: 15.02799524 rev/day
Decay rate: 2.03e-06 rev/day^2
Epoch rev: 03768
Checksum: 256
Satellite: MAST
Catalog number: 31126
Epoch time: 07318.89460469
Element set: 0185
Inclination: 098.0676 deg
RA of node: 026.6256 deg
Eccentricity: 0.0093795
Arg of perigee: 279.0953 deg
Mean anomaly: 079.9603 deg
Mean motion: 14.53375267 rev/day
Decay rate: -1.07e-06 rev/day^2
Epoch rev: 03074
Checksum: 332
Satellite: CAPE1
Catalog number: 31130
Epoch time: 07319.24827694
Element set: 164
Inclination: 098.0688 deg
RA of node: 026.4728 deg
Eccentricity: 0.0101902
Arg of perigee: 279.4127 deg
Mean anomaly: 079.5501 deg
Mean motion: 14.51901013 rev/day
Decay rate: -5.0e-08 rev/day^2
Epoch rev: 3053
Checksum: 275
/EX
More information about the Keps
mailing list